Dewpoint
58 57 56 55 55 55 55 54 52 49 49 47 47 47 48 48 49 47 47 48 50 50 48 47 45 45 47 47 47 47 47 47 47 48 48 49 50 52
57 57 56 56 55 55 55 53 52 48 45 48 46 46 46 47 47 46 46 48 49 48 47 45 44 44 45 44 44 44 44 45 46 46 47 47 50 50
56 56 55 55 54 54 54 53 52 49 45 46 45 45 45 44 44 44 45 45 45 46 46 45 42 43 43 42 43 43 43 44 44 45 46 47 49 51
55 54 54 54 53 53 52 51 51 50 48 46 44 43 44 44 42 42 42 41 42 44 45 44 42 43 43 41 40 39 39 40 42 43 44 45 46 50
54 54 54 53 52 51 51 50 50 49 48 46 43 42 41 41 40 40 39 38 37 39 42 44 41 40 41 40 36 34 33 35 38 41 42 43 45 49
52 53 53 52 52 50 49 49 48 48 47 45 43 41 40 39 40 39 38 37 37 37 41 39 39 37 38 38 33 31 31 31 33 38 40 41 43 47
48 49 50 50 50 49 48 48 47 47 45 44 42 40 39 37 38 38 38 37 36 35 36 35 35 33 32 36 32 30 31 30 31 36 38 39 41 46
46 46 47 48 48 48 48 47 47 46 45 43 41 41 40 39 38 38 37 36 35 35 33 33 32 32 28 30 30 31 31 30 31 33 36 37 38 42
44 44 44 44 45 46 47 46 46 46 45 43 42 41 40 39 38 36 36 35 36 33 32 32 29 28 26 24 30 31 30 34 34 34 36 36 37 38
41 41 42 42 42 43 43 43 43 44 44 43 42 41 40 39 38 38 37 35 31 31 32 32 25 24 24 23 28 29 33 33 34 35 36 37 38 38
39 40 40 41 41 43 41 40 40 40 40 41 41 41 41 41 38 36 34 34 30 28 29 27 23 22 23 23 26 33 33 33 34 34 34 36 36 36
40 39 40 40 41 43 40 39 38 37 36 35 36 38 40 40 39 37 35 34 30 27 26 25 21 21 19 25 29 31 31 32 32 33 33 32 32 30
40 39 39 41 42 43 42 38 38 37 36 33 32 33 34 36 38 36 35 35 31 30 26 24 21 21 17 25 28 29 30 31 32 32 31 29 31 29
39 40 40 40 42 42 43 40 40 38 34 32 30 30 31 32 32 33 34 33 31 32 27 21 19 21 21 23 25 27 29 30 29 30 28 27 29 28
37 39 41 40 41 42 42 42 40 37 33 31 30 29 29 29 27 28 28 28 27 28 27 23 20 20 22 19 21 25 26 28 28 27 26 24 27 25
36 37 38 40 40 40 41 42 40 37 34 32 30 29 28 27 26 26 27 27 27 26 27 25 22 21 22 21 20 22 23 21 25 25 24 24 25 26
31 35 36 36 37 37 38 38 39 36 34 32 30 27 27 26 25 25 25 24 24 25 25 25 25 24 24 24 22 21 23 23 24 25 25 24 26 26
29 28 33 34 35 35 36 36 36 35 34 31 30 29 27 26 25 24 23 23 20 21 23 24 24 23 22 22 24 23 22 23 24 25 24 22 22 24
27 27 32 34 34 34 34 34 33 33 33 31 30 29 28 27 26 25 23 21 20 19 20 22 22 18 16 13 20 25 21 23 23 24 23 22 18 22
24 29 32 32 34 33 33 33 33 32 31 31 30 29 28 27 25 24 23 22 20 21 20 20 21 17 14 11 13 23 25 21 24 23 24 24 24 26
22 27 29 32 33 33 33 33 32 32 32 31 30 28 28 27 25 25 24 24 22 21 21 22 21 21 19 19 17 21 26 26 23 22 22 22 22 23
24 24 28 30 32 33 33 32 31 32 31 31 31 29 28 27 26 25 24 24 24 22 21 23 24 22 20 19 14 16 19 25 27 26 24 22 21 16
25 25 27 30 31 32 32 32 31 31 32 31 31 29 28 27 27 26 25 24 24 24 23 23 24 24 22 21 18 16 18 19 23 25 26 28 27 25
Wind_Speed
12 14 13 11 12 12 12 11 7 8 13 4 3 4 8 10 9 8 6 4 4 6 6 3 2 2 2 2 4 6 7 10 11 13 12 14 15 17
14 15 17 12 14 13 12 11 9 8 8 2 2 5 10 12 11 11 9 8 7 7 5 4 3 3 2 1 3 5 7 8 11 12 12 15 15 17
16 18 18 14 14 15 12 11 12 9 9 3 3 5 7 11 9 7 6 6 4 6 6 5 4 4 4 1 2 4 6 8 10 11 11 14 17 20
16 16 15 13 15 14 14 15 15 11 6 10 3 4 3 6 7 6 5 4 6 6 6 7 6 4 5 2 1 4 6 7 9 11 13 14 16 21
15 16 15 14 14 13 14 16 14 10 7 6 6 3 3 4 3 2 4 4 4 4 7 9 8 6 6 3 2 3 5 7 8 10 12 14 17 21
10 11 13 16 16 17 16 16 13 14 11 10 9 7 4 4 5 6 6 5 7 4 7 6 9 6 5 5 3 2 5 7 8 8 11 14 15 18
10 10 11 10 12 13 16 15 16 15 13 14 9 7 8 6 10 7 9 6 7 9 8 7 6 5 4 6 4 4 5 4 5 8 9 10 12 14
11 10 9 10 12 14 14 12 16 18 16 13 10 12 13 10 8 10 8 6 7 10 11 11 8 9 8 6 6 6 5 3 2 3 7 8 8 10
12 11 12 11 13 12 12 13 14 16 14 18 17 16 13 16 14 12 11 8 8 5 9 5 7 11 7 7 9 6 4 1 3 1 3 5 6 8
12 13 14 15 14 15 15 14 14 14 13 14 17 14 15 15 17 17 17 10 4 4 6 6 5 7 4 6 6 6 4 2 1 1 5 7 7 8
14 13 13 14 15 16 15 16 14 13 9 9 8 9 12 14 16 14 12 12 6 7 11 5 5 4 4 4 5 5 6 5 4 5 4 6 5 8
13 14 14 15 16 17 17 18 17 17 13 7 6 8 12 14 18 15 17 17 8 6 11 12 8 6 4 2 3 2 3 5 7 7 5 5 4 5
13 12 12 17 19 20 19 18 18 12 15 14 12 10 8 8 10 11 13 14 13 4 7 10 8 7 2 3 3 4 5 3 4 6 6 4 5 6
12 13 13 17 21 22 22 19 17 15 14 14 14 13 13 13 10 10 10 8 4 3 17 13 7 10 8 5 5 5 5 5 6 7 5 2 5 5
12 14 18 20 21 23 24 22 21 15 15 17 17 14 14 12 9 6 4 6 6 5 11 8 10 11 9 6 6 7 7 6 8 7 7 6 5 2
14 14 14 17 18 17 17 21 17 16 18 17 15 12 11 12 14 9 8 9 6 4 3 2 8 13 10 5 5 9 7 6 9 9 8 5 4 4
21 13 12 9 11 12 12 14 13 15 17 15 14 14 15 14 14 11 8 8 7 9 8 3 4 5 4 10 7 8 12 5 7 10 7 8 6 8
17 16 13 11 12 13 15 15 13 16 15 15 15 15 16 16 16 13 8 11 12 11 11 8 9 6 2 5 6 11 8 9 7 10 6 8 7 6
15 16 14 12 13 13 14 14 15 16 14 16 16 17 16 15 19 14 14 11 11 10 10 10 14 9 12 13 2 11 11 9 11 11 8 6 4 1
14 15 12 11 11 13 14 15 14 14 17 19 17 18 18 18 15 15 15 14 12 10 12 12 14 15 14 12 5 4 10 11 12 13 9 3 3 5
14 13 14 13 12 12 14 15 16 17 18 18 18 18 18 18 17 15 14 16 15 13 16 16 17 12 7 7 4 3 4 9 9 11 8 7 3 2
15 14 13 14 14 14 13 15 16 16 17 18 18 18 18 19 18 18 17 16 16 14 14 11 12 13 10 9 8 6 5 5 8 7 10 8 7 6
14 14 13 13 14 13 12 14 16 16 18 18 17 17 19 19 18 17 17 17 15 14 13 13 12 9 10 12 10 8 6 6 8 9 7 10 8 5
Wind_Direction
232 228 227 217 209 206 199 178 176 189 209 183 136 101 151 155 155 144 155 176 158 132 118 93 54 7 295 319 337 333 337 336 325 317 315 318 320 319
228 229 227 213 210 209 198 194 198 183 187 155 131 154 157 151 158 158 170 171 174 174 177 210 238 242 221 269 311 328 327 332 315 319 320 312 320 316
223 221 220 201 202 205 194 189 200 191 173 174 148 159 154 157 157 154 160 170 192 211 208 214 241 246 232 235 342 333 330 324 316 322 329 313 315 320
228 219 220 199 203 199 188 198 200 196 170 178 132 146 152 175 170 178 182 189 206 219 223 220 224 240 227 244 356 333 333 317 326 333 332 325 329 325
228 222 221 204 207 197 194 196 195 188 184 158 156 142 126 154 153 189 203 217 231 229 239 225 205 207 207 200 219 292 330 315 333 336 334 333 337 337
244 228 222 211 209 202 200 193 189 189 186 178 174 168 164 171 172 200 226 218 232 222 224 195 188 191 207 207 224 289 321 324 331 336 337 345 344 350
260 241 229 225 213 202 202 191 188 190 187 188 184 172 179 167 197 198 212 211 221 209 207 206 202 201 229 215 235 271 283 304 330 338 342 357 355 0
261 251 245 228 226 212 207 192 191 190 199 192 191 206 201 194 176 186 175 186 235 201 201 224 200 218 219 216 238 239 271 294 305 352 351 350 13 19
262 254 242 226 215 207 203 200 203 206 200 199 196 204 200 199 183 181 190 186 200 168 178 220 194 220 212 211 215 236 245 247 14 17 31 21 30 43
266 259 247 235 217 203 196 204 205 204 206 214 209 201 207 190 190 191 192 179 123 149 168 207 183 215 214 218 234 221 183 175 124 86 97 75 62 61
272 260 251 242 225 210 207 215 213 211 204 207 204 199 196 188 169 149 167 174 185 194 190 187 188 196 222 238 239 225 175 173 162 136 103 91 78 67
275 262 250 242 237 210 206 208 211 221 207 190 187 191 186 190 179 188 178 184 166 183 194 184 169 172 215 253 221 182 135 181 174 137 122 105 102 94
267 259 247 237 233 218 202 200 209 198 201 204 202 188 185 195 189 197 184 181 182 181 178 157 170 173 148 181 205 196 176 185 130 133 131 119 120 136
303 267 247 240 230 220 213 208 209 189 186 189 195 202 199 199 206 200 200 196 189 202 173 159 168 170 164 177 188 185 193 175 143 167 153 153 130 119
301 304 274 240 234 231 223 211 202 189 185 189 198 199 200 190 157 141 107 124 100 93 163 173 168 169 181 194 176 180 167 201 188 180 174 177 174 138
302 295 307 260 228 228 231 219 200 187 194 200 194 186 164 163 178 161 173 170 149 150 59 156 168 166 189 199 173 178 167 175 187 188 175 178 192 192
303 302 280 280 242 227 209 202 198 191 197 194 183 178 178 175 179 177 165 177 182 184 184 157 135 160 180 171 194 183 177 178 188 168 168 201 221 214
294 286 282 262 242 233 221 215 203 202 201 185 182 179 183 180 180 177 173 190 197 189 181 183 163 136 116 254 213 182 171 184 170 170 151 194 235 226
287 284 279 264 243 232 225 216 210 205 190 188 185 182 179 186 185 187 182 188 202 201 197 177 182 168 179 205 214 200 180 181 171 181 179 176 178 178
286 290 285 284 261 234 224 216 212 197 193 194 190 183 179 180 180 183 184 187 193 197 200 192 194 192 191 197 188 185 194 173 182 191 186 164 234 274
277 277 286 288 279 250 232 225 213 204 199 193 191 183 179 178 180 183 186 197 189 195 207 210 211 191 139 120 144 139 172 198 175 178 168 169 180 227
267 270 275 275 278 265 238 227 216 206 201 199 194 184 180 179 181 180 184 193 198 199 208 197 169 164 179 183 183 152 152 157 192 176 179 167 164 204
261 267 268 271 279 270 253 233 221 211 205 201 194 187 180 182 180 180 183 191 191 187 178 173 169 176 195 199 187 177 162 162 170 183 212 218 215 196